Weather History for EICK - November, 2012

Change the Weather History Date:

Sunday, November 4, 2012

  Actual Average Record
Temperature  
Mean Temperature 40 °F -  
Max Temperature 45 °F 50 °F 59 °F (2010)
Min Temperature 36 °F 40 °F 35 °F (2013)
Degree Days  
Heating Degree Days 24    
Moisture  
Dew Point 40 °F    
Average Humidity 93    
Maximum Humidity 100    
Minimum Humidity 81    
Precipitation  
Precipitation 0.12 in 0.15 in - ()
Sea Level Pressure  
Sea Level Pressure 29.20 in    
Wind  
Wind Speed 13 mph ()    
Max Wind Speed 21 mph    
Max Gust Speed 32 mph    
Visibility 6.8 miles    
Events Rain    
Averages and records for this station are not official NWS values.
T = Trace of Precipitation, MM = Missing Value Source: Averaged Metar Reports

Daily Weather History Graph

Daily Weather History Graph

Search for Another Location

Airport or City:

Trip Planner

Search our weather history database for the weather conditions in past years. The results will help you decide how hot, cold, wet, or windy it might be!

Date:

Astronomy

Nov. 04, 2012 Rise Set
Actual Time 7:34 AM GMT 4:59 PM GMT
Civil Twilight 6:58 AM GMT 5:35 PM GMT
Nautical Twilight 6:18 AM GMT 6:15 PM GMT
Astronomical Twilight 5:39 AM GMT 6:54 PM GMT
Moon 9:17 PM GMT (11/4) 12:18 PM GMT (11/4)
Length of Visible Light 10h 37m
Length of Day
9h 25m
Waning Gibbous, 74% of the Moon is Illuminated
Nov 4
Waning Gibbous
Nov 7
Last Quarter
Nov 13
New
Nov 20
First Quarter
Nov 28
Full

Hourly Weather History & Observations

Time (GMT) Temp. Windchill Dew Point Humidity Pressure Visibility Wind Dir Wind Speed Gust Speed Precip Events Conditions
12:00 AM 43 °F - 39 °F 81% 29.22 in 12 mi SSW 20.1 mph - - Rain Light Rain Showers
12:00 AM 42.8 °F 34.0 °F 39.2 °F 87% 29.21 in 6.2 mi SSW 20.7 mph 32.2 mph N/A Rain Light Rain Showers
12:30 AM 42.8 °F 34.3 °F 41.0 °F 93% 29.18 in 6.2 mi SW 19.6 mph 32.2 mph N/A Rain Light Rain Showers
1:00 AM 42.8 °F 34.5 °F 41.0 °F 93% 29.18 in 6.2 mi SSW 18.4 mph - N/A Rain Light Rain Showers
1:30 AM 42.8 °F 35.4 °F 39.2 °F 87% 29.15 in 6.2 mi SSW 15.0 mph - N/A   Mostly Cloudy
2:00 AM 41.0 °F 33.9 °F 39.2 °F 93% 29.15 in 6.2 mi South 12.7 mph - N/A   Mostly Cloudy
2:30 AM 42.8 °F 36.2 °F 41.0 °F 93% 29.15 in 6.2 mi SSW 12.7 mph - N/A Rain Light Rain Showers
3:00 AM 42.8 °F 34.5 °F 41.0 °F 93% 29.12 in 6.2 mi SSW 18.4 mph - N/A Rain Light Rain Showers
3:30 AM 41.0 °F - 39.2 °F 93% 29.12 in - North - - N/A Rain Light Rain Showers
4:00 AM 39.2 °F 34.2 °F 39.2 °F 100% 29.12 in 6.2 mi South 6.9 mph - N/A   Scattered Clouds
4:30 AM 39.2 °F 33.6 °F 37.4 °F 93% 29.12 in 6.2 mi SSW 8.1 mph - N/A   Scattered Clouds
5:00 AM 37.4 °F 32.8 °F 37.4 °F 100% 29.12 in 6.2 mi SSW 5.8 mph - N/A   Partly Cloudy
5:30 AM 37.4 °F 32.1 °F 35.6 °F 93% 29.12 in 6.2 mi SSW 6.9 mph - N/A   Partly Cloudy
6:00 AM 37 °F - 36 °F 97% 29.14 in 19 mi South 6.7 mph - -   Partly Cloudy
6:00 AM 37.4 °F 32.8 °F 37.4 °F 100% 29.12 in 6.2 mi South 5.8 mph - N/A   Partly Cloudy
6:30 AM 37.4 °F 31.4 °F 37.4 °F 100% 29.09 in 6.2 mi SSW 8.1 mph - N/A   Partly Cloudy
7:00 AM 37.4 °F 31.4 °F 35.6 °F 93% 29.09 in 6.2 mi SSW 8.1 mph - N/A   Partly Cloudy
7:30 AM 37.4 °F 31.4 °F 37.4 °F 100% 29.09 in 6.2 mi South 8.1 mph - N/A   Scattered Clouds
8:00 AM 39.2 °F 33.6 °F 39.2 °F 100% 29.09 in 6.2 mi South 8.1 mph - N/A   Mostly Cloudy
8:30 AM 41.0 °F 35.8 °F 39.2 °F 93% 29.06 in 6.2 mi SSW 8.1 mph - N/A   Mostly Cloudy
9:00 AM 41.0 °F 34.7 °F 41.0 °F 100% 29.06 in 6.2 mi SSW 10.4 mph - N/A Rain Light Rain Showers
9:30 AM 42.8 °F 37.0 °F 41.0 °F 93% 29.06 in 6.2 mi SSW 10.4 mph - N/A Rain Light Rain Showers
10:00 AM 42.8 °F 38.6 °F 42.8 °F 100% 29.03 in 6.2 mi South 6.9 mph - N/A   Mostly Cloudy
10:30 AM 44.6 °F 43.1 °F 42.8 °F 93% 29.03 in 6.2 mi West 3.5 mph - N/A Rain Light Rain Showers
11:00 AM 44.6 °F 38.1 °F 42.8 °F 93% 29.06 in 6.2 mi WNW 13.8 mph - N/A Rain Light Rain Showers
11:30 AM 42.8 °F 35.8 °F 42.8 °F 100% 29.06 in 6.2 mi North 13.8 mph - N/A Rain Light Rain
12:00 PM 43 °F - 42 °F 93% 29.13 in 22 mi NNW 17.9 mph - - Rain Light Rain Showers
12:00 PM 42.8 °F 34.8 °F 41.0 °F 93% 29.09 in 6.2 mi NNW 17.3 mph - N/A Rain Light Rain Showers
12:30 PM 42.8 °F 35.4 °F 41.0 °F 93% 29.12 in 6.2 mi NW 15.0 mph - N/A   Mostly Cloudy
1:00 PM 42.8 °F 34.5 °F 41.0 °F 93% 29.15 in 6.2 mi NW 18.4 mph - N/A   Mostly Cloudy
1:30 PM 42.8 °F 34.3 °F 41.0 °F 93% 29.15 in 6.2 mi NW 19.6 mph - N/A   Mostly Cloudy
2:00 PM 44.6 °F 37.2 °F 41.0 °F 87% 29.18 in 6.2 mi NW 17.3 mph - N/A   Mostly Cloudy
2:30 PM 44.6 °F 36.9 °F 41.0 °F 87% 29.18 in 6.2 mi NW 18.4 mph - N/A   Mostly Cloudy
3:00 PM 44.6 °F 36.6 °F 41.0 °F 87% 29.21 in 6.2 mi NW 19.6 mph - N/A   Mostly Cloudy
3:30 PM 46.4 °F 39.2 °F 41.0 °F 81% 29.21 in 6.2 mi NW 18.4 mph - N/A Rain Light Rain Showers
4:00 PM 44.6 °F 37.4 °F 41.0 °F 87% 29.24 in 6.2 mi NW 16.1 mph - N/A Rain Light Rain Showers
4:30 PM 42.8 °F 35.1 °F 41.0 °F 93% 29.27 in 6.2 mi NW 16.1 mph - N/A   Mostly Cloudy
5:00 PM 42.8 °F 34.5 °F 39.2 °F 87% 29.27 in 6.2 mi NW 18.4 mph - N/A   Mostly Cloudy
5:30 PM 42.8 °F 34.5 °F 39.2 °F 87% 29.27 in 6.2 mi NW 18.4 mph - N/A   Mostly Cloudy
6:00 PM 43 °F - 40 °F 83% 29.32 in 16 mi NW 17.9 mph - -   Partly Cloudy
6:00 PM 42.8 °F 34.5 °F 39.2 °F 87% 29.30 in 6.2 mi NW 18.4 mph - N/A   Mostly Cloudy
6:30 PM 42.8 °F 34.8 °F 39.2 °F 87% 29.30 in 6.2 mi NW 17.3 mph - N/A   Scattered Clouds
7:00 PM 41.0 °F 33.5 °F 39.2 °F 93% 29.33 in 6.2 mi NW 13.8 mph - N/A   Partly Cloudy
7:30 PM 41.0 °F 33.1 °F 39.2 °F 93% 29.36 in 6.2 mi NW 15.0 mph - N/A   Mostly Cloudy
8:00 PM 41.0 °F 33.1 °F 39.2 °F 93% 29.36 in 6.2 mi NW 15.0 mph - N/A   Mostly Cloudy
8:30 PM 41.0 °F 33.5 °F 39.2 °F 93% 29.39 in 6.2 mi NW 13.8 mph - N/A   Mostly Cloudy
9:00 PM 41.0 °F 32.5 °F 39.2 °F 93% 29.39 in 6.2 mi NW 17.3 mph - N/A   Mostly Cloudy
9:30 PM 41.0 °F 32.2 °F 41.0 °F 100% 29.42 in 6.2 mi NNW 18.4 mph - N/A   Mostly Cloudy
10:00 PM 41.0 °F 33.1 °F 41.0 °F 100% 29.42 in 6.2 mi NNW 15.0 mph - N/A   Mostly Cloudy
10:30 PM 41.0 °F 32.8 °F 41.0 °F 100% 29.44 in 6.2 mi NNW 16.1 mph - N/A   Mostly Cloudy
11:00 PM 41.0 °F 32.8 °F 41.0 °F 100% 29.44 in 6.2 mi NNW 16.1 mph - N/A   Mostly Cloudy
11:30 PM 41.0 °F 33.5 °F 39.2 °F 93% 29.47 in 6.2 mi NW 13.8 mph - N/A   Mostly Cloudy